FW0428 Weather Reports


Display with metric or nautical units.
time (UTC)temp
F
wind
direction
speed
MPH
gust
MPH
rain 1hr
in
rain 24hr
in
rain mn
in
humidity
%
barometer
mb
20260905100113 77 96 0.0 0.0 0.00 0.00 0.00 88 1011.8
20260905094644 77 96 0.0 0.0 0.00 0.00 0.00 89 1011.7
20260905084548 78 96 0.0 0.0 0.00 0.00 0.00 86 1011.3
20260905081525 79 96 0.0 0.0 0.00 0.00 0.00 85 1011.3
20260905080111 79 96 0.0 0.0 0.00 0.00 0.00 84 1011.5
20260905073037 79 96 0.0 0.0 0.00 0.00 0.00 83 1011.6
20260905071614 80 96 0.0 1.0 0.00 0.00 0.00 83 1011.8
20260905070051 80 96 0.0 1.0 0.00 0.00 0.00 82 1011.9
20260905064636 80 96 0.0 0.0 0.00 0.00 0.00 82 1012.0
20260905063101 80 96 0.0 0.0 0.00 0.00 0.00 82 1011.9
20260905061549 80 96 0.0 0.0 0.00 0.00 0.00 81 1011.8
20260905060026 81 96 0.0 0.0 0.00 0.00 0.00 80 1011.8
20260905054556 81 96 0.0 1.0 0.00 0.00 0.00 79 1011.5
20260905053101 81 96 0.0 0.0 0.00 0.00 0.00 78 1011.4
20260905051518 82 96 0.0 0.0 0.00 0.00 0.00 77 1011.4
20260905043149 83 88 0.0 0.0 0.00 0.00 0.00 73 1011.5
20260905024517 85 88 0.0 0.0 0.00 0.00 0.00 67 1011.3
20260905011519 89 88 0.0 1.0 0.00 0.00 0.00 60 1010.4
20260905010103 89 89 0.0 0.0 0.00 0.00 0.00 58 1010.3
20260905001659 93 89 0.0 1.0 0.00 0.00 0.00 53 1010.2
20260904233015 94 292 0.0 1.0 0.00 0.00 0.00 53 1010.1
20260904230115 96 261 0.0 0.0 0.00 0.00 0.00 50 1010.1
20260904224646 98 273 0.0 1.0 0.00 0.00 0.00 47 1010.1
20260904221548 98 75 0.0 4.0 0.00 0.00 0.00 47 1010.2
20260904220113 98 97 0.0 3.0 0.00 0.00 0.00 46 1010.1
20260904214649 98 90 0.0 5.0 0.00 0.00 0.00 47 1010.2
20260904213050 98 290 0.0 3.0 0.00 0.00 0.00 46 1010.4
20260904204554 99 129 0.0 3.0 0.00 0.00 0.00 49 1010.8
20260904203138 99 76 0.0 3.0 0.00 0.00 0.00 46 1011.0
20260904201642 99 98 0.0 3.0 0.00 0.00 0.00 47 1011.3
20260904200129 97 285 0.0 2.0 0.00 0.00 0.00 48 1011.7
20260904194610 97 216 0.0 3.0 0.00 0.00 0.00 49 1011.8
20260904180012 94 96 0.0 2.0 0.00 0.00 0.00 59 1013.0
20260904174556 92 260 0.0 3.0 0.00 0.00 0.00 58 1013.2
20260904173015 92 255 0.0 2.0 0.00 0.00 0.00 60 1013.4
20260904170002 92 140 0.0 0.0 0.00 0.00 0.00 58 1013.8
20260904164558 92 88 0.0 4.0 0.00 0.00 0.00 60 1013.9
20260904154650 88 85 0.0 2.0 0.00 0.00 0.00 70 1013.9
20260904151505 84 90 0.0 2.0 0.00 0.00 0.00 81 1013.8
20260904144651 82 175 0.0 0.0 0.00 0.00 0.00 86 1013.9
20260904143028 81 140 0.0 1.0 0.00 0.00 0.00 88 1013.8
20260904141648 80 251 0.0 0.0 0.00 0.00 0.00 89 1013.8
20260904133124 78 252 0.0 0.0 0.00 0.00 0.00 93 1013.6
20260904124658 75 136 0.0 0.0 0.00 0.00 0.00 96 1013.2
20260904121645 74 136 0.0 0.0 0.00 0.00 0.00 95 1013.0
20260904120011 74 136 0.0 0.0 0.00 0.00 0.00 94 1012.8
20260904113141 75 136 0.0 0.0 0.00 0.00 0.00 94 1012.7
20260904111653 75 136 0.0 0.0 0.00 0.00 0.00 94 1012.7